Location: Elftman
(33.8403°N, 118.2231°W)
Time: 04:14:19
(UTC+00:00)

Daily predictions for brighter satellites

Satellite Brightness Start Highest point End
(mag) Time Altitude Azimuth Time Altitude Azimuth Time Altitude Azimuth
Milstar 3 3.4 01:19:59 10° WSW 01:27:18 48° S 01:33:43 10° E
Cosmos 2266 Rocket 4.0 01:21:22 10° N 01:27:38 80° E 01:33:59 10° S
Cosmos 1400 Rocket 3.8 01:27:09 10° SSE 01:30:37 27° E 01:34:06 10° NE
H-2A R/B 4.4 01:26:34 10° SSW 01:30:38 39° W 01:34:49 10° NNW
Cosmos 1809 Rocket 4.4 01:25:25 10° N 01:31:32 70° E 01:37:35 10° SSE
CORIOLIS 4.1 01:26:59 10° SSE 01:32:18 77° ENE 01:37:39 10° N
Cosmos 1689 Rocket 2.9 01:29:50 10° NE 01:32:24 29° E 01:34:58 10° SSE
USA 281 3.2 01:26:23 10° SSE 01:32:57 83° ENE 01:39:32 10° NNW
COSMOS 2487 2.3 01:32:45 10° NNW 01:36:10 74° ENE 01:39:35 10° SSE
Cosmos 1331 Rocket 4.2 01:33:34 10° SSW 01:38:43 76° WNW 01:43:53 10° NNE
COSMO-SKYMED 1 2.7 01:37:30 10° NNE 01:41:46 53° E 01:45:59 10° S
YAOGAN 6 4.2 01:38:22 10° S 01:41:47 40° W 01:45:15 10° NNW
OAO 2 Rocket 3.6 01:37:21 10° SW 01:42:13 54° SSE 01:46:47 11° E
Okean O Rocket 2.1 01:38:10 10° S 01:42:31 64° W 01:46:51 10° NNW
YAOGAN 1 3.8 01:48:22 10° ESE 01:51:32 20° ENE 01:54:42 10° NNE
Cosmos 1825 Rocket 3.5 01:49:34 10° N 01:54:02 86° E 01:58:25 10° S
Cosmos 2219 4.2 01:50:23 10° N 01:55:05 25° ENE 01:59:47 10° ESE
Aureole 3 2.9 01:51:55 10° S 01:55:23 53° E 01:58:26 10° NNE
Cosmos 1315 Rocket 4.2 01:57:02 10° SE 01:59:44 18° E 02:00:17 18° E
Cosmos 1892 4.1 01:57:25 10° NNE 02:00:15 19° ENE 02:01:24 17° E
Hubble Space Telescope 3.2 01:59:20 10° WSW 02:02:04 17° SSW 02:04:48 10° SSE
CZ-2D R/B 3.6 01:58:48 10° SE 02:02:23 40° ENE 02:05:58 10° N
Cosmos 1726 Rocket 4.0 01:59:11 10° SSW 02:03:27 65° W 02:07:48 10° N
S3M 4.4 01:58:19 10° SSE 02:03:46 35° E 02:09:14 10° NNE
Delta 2 Rocket 4.0 01:58:59 10° W 02:04:16 78° N 02:08:24 19° E
CZ-2C R/B 3.9 01:59:33 10° SE 02:04:43 34° ENE 02:09:50 10° N
Cosmos 1300 3.5 02:01:57 10° SSW 02:05:40 53° W 02:09:24 10° N
Cosmos 1302 Rocket 4.1 02:03:03 10° SSW 02:08:17 82° WNW 02:13:36 10° NNE
Cosmos 2369 4.4 02:05:37 10° SSE 02:10:33 31° ESE 02:14:26 15° NE
Atlas Centaur 2 3.5 02:03:58 10° WSW 02:12:05 53° SSE 02:17:56 20° E
Okean-O 2.8 02:08:46 10° SSE 02:13:00 47° ENE 02:17:14 10° N
Meteor 2-10 Rocket 3.9 02:08:11 10° SSE 02:13:18 43° E 02:18:13 10° NNE
Cosmos 1417 Rocket 4.5 02:09:20 10° S 02:15:24 59° E 02:21:35 10° NNE
Timation 2 Rocket 4.2 02:09:05 10° NNW 02:15:40 61° ENE 02:22:25 10° SE
ARGOS 4.3 02:18:06 22° ENE 02:18:11 22° ENE 02:22:16 10° NNE
BREEZE-M DEB (TANK) 4.1 02:15:44 10° SSW 02:19:21 20° SSE 02:19:43 19° SE
CZ-4B R/B 4.5 02:17:42 10° NW 02:19:23 14° WNW 02:21:03 10° WSW
BREEZE-M TANK 4.3 02:15:11 10° WNW 02:21:03 24° N 02:23:05 16° NE
Meteor 2-1 Rocket 4.4 02:17:31 10° SSE 02:22:45 46° E 02:28:00 10° NNE
NOSS 3-3 (A) 3.8 02:18:44 10° SSW 02:24:14 61° ESE 02:29:21 15° NE
NOSS 3-3 (C) 3.8 02:18:47 10° SSW 02:24:21 61° ESE 02:29:28 15° NE
Elektron 3 4.3 02:19:59 10° NW 02:24:36 74° WSW 02:26:51 17° SSE
Cosmos 1656 3.8 02:20:22 10° SSW 02:25:52 78° WNW 02:31:30 10° NNE
MOS 1 Rocket 3.4 02:24:39 10° NNE 02:29:18 55° E 02:34:14 10° S
Cosmos 2227 Rocket 2.6 02:26:16 10° N 02:31:31 38° ENE 02:33:07 32° E
CSL-04 Rocket 4.0 02:27:59 10° SE 02:33:11 42° ENE 02:38:22 10° N
Cosmos 1553 Rocket 4.1 02:27:42 10° S 02:34:06 84° W 02:40:27 10° N
DMSP B5D1-3 4.4 02:28:58 10° NNE 02:34:06 71° ESE 02:39:14 10° S
OAO 3 Rocket 3.1 02:32:34 10° W 02:37:21 81° SSW 02:38:53 43° ESE
Helios 1A Rocket 3.2 02:34:27 10° S 02:38:33 71° WSW 02:42:40 10° NNW
GEOS 3 Rocket 4.3 02:38:25 33° ENE 02:38:54 33° NE 02:43:40 10° NNW
Cosmos 1939 Rocket 4.2 02:35:48 10° S 02:39:35 41° W 02:43:20 10° NNW
SL-08 ROCKET BODY 4.4 02:33:36 10° N 02:39:40 65° E 02:45:47 10° SSE
Cosmos 1340 2.6 02:36:07 10° N 02:39:54 83° W 02:43:39 10° S
BREEZE-M DEB (TANK) 3.9 02:38:13 10° SW 02:41:50 81° NW 02:50:32 16° NE
Cosmos 1697 Rocket 2.5 02:37:49 10° SSW 02:43:24 75° ESE 02:47:49 17° NNE
ASTRO E2 3.0 02:42:16 10° WSW 02:46:05 49° S 02:46:10 49° SSE
OAO 1 Rocket 4.4 02:40:55 10° W 02:46:17 89° N 02:47:44 50° E
H-2A R/B 2.1 02:43:42 17° SSE 02:47:46 58° ENE 02:53:06 10° N
Cosmos 1992 Rocket 3.9 02:44:14 10° SSW 02:49:26 88° WNW 02:54:08 13° NNE
Cosmos 220 Rocket 4.1 02:45:13 10° SSW 02:49:31 77° WNW 02:52:04 24° N
Cosmos 1455 2.2 02:51:23 10° S 02:54:54 73° SW 02:54:54 73° SW
Meteor 2-15 Rocket 4.4 02:49:16 10° S 02:55:24 90° E 03:01:35 10° N
CZ-4 R/B 2.4 02:56:26 10° S 03:00:12 44° W 03:03:56 10° NNW
GPS 2-04 Rocket1 3.7 03:00:01 10° SW 03:03:00 40° SSW 03:03:00 40° SSW
Cosmos 44 Rocket 3.4 03:00:32 10° SSW 03:04:22 58° S 03:04:22 58° S
Cosmos 1980 Rocket 2.5 02:59:47 10° S 03:04:12 49° SSE 03:04:12 49° SSE
Cosmos 2058 4.4 03:01:12 10° N 03:03:08 27° N 03:03:08 27° N
Cosmos 1745 Rocket 4.0 03:00:41 10° N 03:07:00 87° W 03:13:21 10° S
CSL-04 Debris 4.2 03:06:05 10° S 03:11:30 78° WSW 03:16:58 10° NNW
Cosmos 2297 Rocket 2.3 03:06:05 10° NNW 03:11:45 75° WSW 03:14:00 38° S
Cosmos 2360 4.3 03:10:00 10° SSW 03:15:43 76° WNW 03:17:41 42° N
OAO 2 Rocket 3.9 03:21:58 10° W 03:25:44 52° W 03:25:44 52° W
SeaSat 1 4.1 03:31:00 25° NNW 03:31:00 25° NNW 03:33:03 10° NNW
Cosmos 2278 4.0 03:25:44 10° SSW 03:30:21 59° SW 03:30:21 59° SW
Cosmos 1709 Rocket 4.4 03:30:38 10° N 03:35:19 52° N 03:35:19 52° N
Cosmos 2219 4.4 03:34:01 10° NW 03:39:18 39° WSW 03:42:03 24° SSW
Cosmos 2315 Rocket 4.3 03:38:40 10° SSW 03:49:08 20° N 03:50:58 10° N
Atlas Centaur 2 3.3 03:53:18 10° W 04:00:32 61° SW 04:00:32 61° SW
Milstar 3 3.7 04:03:45 10° W 04:08:18 42° SW 04:08:18 42° SW
Cosmos 2227 Rocket 4.2 04:10:52 10° NW 04:15:02 24° W 04:15:02 24° W
CENTAUR R/B 4.5 10:44:29 22° NE 10:44:29 22° NE 10:46:46 10° NE
CZ-3 R/B 4.3 10:42:21 50° SW 10:51:03 62° S 11:03:12 10° E
ATLAS 3B R/B 3.9 11:23:35 22° SSE 11:26:58 36° ESE 11:32:51 10° NE
COSMOS 2406 3.9 11:30:19 51° ENE 11:30:19 51° ENE 11:35:01 10° NNE
Cosmos 2344 4.3 11:37:02 36° NNW 11:37:02 36° NNW 11:42:20 10° NNE
Cosmos 2279 Rocket 4.4 11:30:49 10° N 11:36:55 59° E 11:43:00 10° SSE
ADEOS Rocket 3.3 11:39:46 10° SSE 11:45:08 54° ENE 11:50:29 10° N
Cosmos 1461 4.3 11:46:38 39° ESE 11:46:38 39° ESE 11:50:43 10° NE
ISS -0.5 11:52:01 11° NE 11:52:01 11° NE 11:52:07 10° NE
